Location: Musselshell
(46.5176°N, 108.0911°W)
Time: 04:34:03
(UTC+00:00)

VELOX 1 - Pass Details

Date: 08 July 2022
Orbit: 623 x 639 km, 98.4° (Epoch: 09 August)

Event Time Altitude Azimuth Distance (km) Brightness Sun altitude
Rises 10:08:17 0° 114° (ESE) 2,933 ? -11.0°
Reaches altitude 10° 10:11:27 10° 89° (E) 2,032 ? -10.6°
Maximum altitude 10:13:41 14° 58° (ENE) 1,791 ? -10.4°
Drops below altitude 10° 10:15:55 10° 28° (NNE) 2,041 ? -10.1°
Sets 10:19:06 0° 3° (N) 2,957 ? -9.8°
